Back to catalog

KUIPER-00148

AliveCommunicationsLEO
NORAD 65769·PAYLOAD·🇺🇸 United States

Launched Sep 25, 2025 from Cape Canaveral Space Force Station

Loading…

Next Passes (next 24 hours)

TLE

FreshSource: CelesTrak SupGP

Epoch: Sep 14, 2026, 14:48 UTC

1 65769C 25217H   26257.61707176  .00003405  00000+0  44565-3 0  2572
2 65769  51.9033 267.6901 0000530  77.8582 268.9773 14.79932009    19

Track KUIPER-00148 in real time with AllMySat

Download on the App Store